Strathmore
DateTemperatureDew Point
05/03 - 10:45 AM68.1°55.6°
05/03 - 10:30 AM66.6°54.9°
05/03 - 10:15 AM66.1°54.8°
05/03 - 10:00 AM65.5°54.7°
05/03 - 09:45 AM64.4°54.5°
05/03 - 09:30 AM63.2°54.0°
05/03 - 09:15 AM62.5°53.7°
05/03 - 09:00 AM62.1°53.4°
05/03 - 08:45 AM63.0°53.5°
05/03 - 08:30 AM62.3°53.2°
05/03 - 08:15 AM61.3°52.7°
05/03 - 08:00 AM60.4°52.4°
05/03 - 07:45 AM59.3°52.1°
05/03 - 07:30 AM58.0°51.9°
05/03 - 07:15 AM57.3°52.5°
05/03 - 07:00 AM56.3°52.8°
05/03 - 06:45 AM55.3°53.4°
05/03 - 06:30 AM54.4°54.1°
05/03 - 06:15 AM53.9°53.9°
05/03 - 06:00 AM53.3°53.3°
05/03 - 05:45 AM53.6°53.6°
05/03 - 05:30 AM54.0°54.0°
05/03 - 05:15 AM54.5°54.5°
05/03 - 05:00 AM55.0°55.0°
05/03 - 04:45 AM55.0°55.0°
05/03 - 04:30 AM55.3°55.3°
05/03 - 04:15 AM55.5°55.5°
05/03 - 04:00 AM55.6°55.6°
05/03 - 03:45 AM56.1°56.1°
05/03 - 03:30 AM56.6°56.6°
05/03 - 03:15 AM56.6°56.6°
05/03 - 03:00 AM56.7°56.7°
05/03 - 02:45 AM56.5°56.4°
05/03 - 02:30 AM56.2°55.8°
05/03 - 02:15 AM56.2°55.6°
05/03 - 02:00 AM56.5°55.7°
05/03 - 01:45 AM56.0°54.9°
05/03 - 01:30 AM56.3°55.0°
05/03 - 01:15 AM56.5°55.3°
05/03 - 01:00 AM56.8°55.7°
05/03 - 12:45 AM57.1°55.9°
05/03 - 12:30 AM57.0°55.5°
05/03 - 12:15 AM57.2°55.3°
05/03 - 12:00 AM57.5°55.1°
05/02 - 11:45 PM57.9°54.7°
05/02 - 11:30 PM58.6°54.3°
05/02 - 11:15 PM59.4°54.2°
05/02 - 11:00 PM59.9°54.7°
05/02 - 10:45 PM60.5°55.0°
05/02 - 10:30 PM61.1°55.5°
05/02 - 10:15 PM61.7°55.3°
05/02 - 10:00 PM62.1°54.6°
05/02 - 09:45 PM62.3°54.9°
05/02 - 09:30 PM63.2°54.6°
05/02 - 09:15 PM64.1°54.4°
05/02 - 09:00 PM65.5°53.5°
05/02 - 08:45 PM66.4°52.7°
05/02 - 08:30 PM67.6°53.3°
05/02 - 08:15 PM69.2°53.6°
05/02 - 08:00 PM71.3°53.8°
05/02 - 07:45 PM74.1°53.6°
05/02 - 07:30 PM76.6°52.5°
05/02 - 07:15 PM79.0°51.5°
05/02 - 07:00 PM81.7°50.4°
05/02 - 06:45 PM83.8°49.6°
05/02 - 06:30 PM85.4°49.4°
05/02 - 06:15 PM86.6°49.2°
05/02 - 06:00 PM87.4°48.8°
05/02 - 05:45 PM88.0°48.1°
05/02 - 05:30 PM88.9°48.5°
05/02 - 05:15 PM89.3°48.9°
05/02 - 05:00 PM89.8°49.2°
05/02 - 04:45 PM90.4°48.7°
05/02 - 04:30 PM90.8°49.2°
05/02 - 04:15 PM91.2°49.0°
05/02 - 04:00 PM91.6°48.6°
05/02 - 03:45 PM91.7°48.0°
05/02 - 03:30 PM91.2°47.9°
05/02 - 03:15 PM90.6°47.4°
05/02 - 03:00 PM90.8°47.4°
05/02 - 02:45 PM90.3°47.6°
05/02 - 02:30 PM91.5°49.2°
05/02 - 02:15 PM91.3°49.5°
05/02 - 02:00 PM91.2°49.6°
05/02 - 01:45 PM91.1°49.4°
05/02 - 01:30 PM90.3°51.5°
05/02 - 01:15 PM89.7°53.0°
05/02 - 01:00 PM90.1°51.6°
05/02 - 12:45 PM88.6°53.7°
05/02 - 12:30 PM87.2°55.5°
05/02 - 12:15 PM87.0°56.3°
05/02 - 12:00 PM86.5°56.4°
05/02 - 11:45 AM86.6°56.2°
05/02 - 11:30 AM86.2°57.3°
05/02 - 11:15 AM84.8°55.9°
05/02 - 11:00 AM83.9°55.9°
05/02 - 10:45 AM83.5°56.0°
05/02 - 10:30 AM82.1°56.0°
05/02 - 10:15 AM80.6°55.7°
05/02 - 10:00 AM78.6°55.7°
05/02 - 09:45 AM76.7°55.7°
05/02 - 09:30 AM74.5°56.0°
05/02 - 09:15 AM73.3°57.7°
05/02 - 09:00 AM71.8°57.9°
05/02 - 08:45 AM70.7°57.6°
05/02 - 08:30 AM69.3°56.8°
05/02 - 08:15 AM67.9°56.0°
05/02 - 08:00 AM66.7°55.7°
05/02 - 07:45 AM65.3°55.6°
05/02 - 07:30 AM64.1°55.1°
05/02 - 07:15 AM61.6°55.0°
05/02 - 07:00 AM57.9°55.6°
05/02 - 06:45 AM56.1°55.4°
05/02 - 06:30 AM54.2°54.2°
05/02 - 06:15 AM52.9°52.7°
05/02 - 06:00 AM52.7°52.2°
05/02 - 05:45 AM52.8°52.1°
05/02 - 05:30 AM53.2°52.5°
05/02 - 05:15 AM53.6°52.8°
05/02 - 05:00 AM53.9°53.2°
05/02 - 04:45 AM54.0°53.4°
05/02 - 04:30 AM54.1°53.5°
05/02 - 04:15 AM54.2°53.6°
05/02 - 04:00 AM54.3°53.7°
05/02 - 03:45 AM54.5°53.8°
05/02 - 03:30 AM54.8°54.0°
05/02 - 03:15 AM55.2°54.3°
05/02 - 03:00 AM55.2°54.2°
05/02 - 02:45 AM55.5°54.2°
05/02 - 02:30 AM55.9°54.5°
05/02 - 02:15 AM56.2°54.5°
05/02 - 02:00 AM56.5°54.8°
05/02 - 01:45 AM56.9°55.0°
05/02 - 01:30 AM57.4°55.0°
05/02 - 01:15 AM57.8°54.8°
05/02 - 01:00 AM58.2°54.6°
05/02 - 12:45 AM58.9°54.7°
05/02 - 12:30 AM59.6°54.5°
05/02 - 12:15 AM59.8°54.5°
05/02 - 12:00 AM59.9°54.9°
05/01 - 11:45 PM60.5°55.2°
05/01 - 11:30 PM61.4°55.1°
05/01 - 11:15 PM61.7°54.9°
05/01 - 11:00 PM61.7°54.8°
05/01 - 10:45 PM62.3°55.2°
05/01 - 10:30 PM63.1°54.9°
05/01 - 10:15 PM63.4°54.5°
05/01 - 10:00 PM62.6°55.0°
05/01 - 09:45 PM62.5°56.1°
05/01 - 09:30 PM63.2°55.9°
05/01 - 09:15 PM63.5°56.0°
05/01 - 09:00 PM64.1°56.6°
05/01 - 08:45 PM64.5°57.4°
05/01 - 08:30 PM65.5°57.6°
05/01 - 08:15 PM67.0°57.7°
05/01 - 08:00 PM68.5°57.6°
05/01 - 07:45 PM71.3°57.8°
05/01 - 07:30 PM74.3°58.7°
05/01 - 07:15 PM77.7°58.1°
05/01 - 07:00 PM80.4°56.4°
05/01 - 06:45 PM82.5°55.6°
05/01 - 06:30 PM83.7°54.8°
05/01 - 06:15 PM84.6°53.9°
05/01 - 06:00 PM85.2°53.3°
05/01 - 05:45 PM85.9°52.8°
05/01 - 05:30 PM86.3°52.2°
05/01 - 05:15 PM87.0°52.0°
05/01 - 05:00 PM87.5°52.4°
05/01 - 04:45 PM88.0°52.6°
05/01 - 04:30 PM89.4°53.1°
05/01 - 04:15 PM90.2°52.8°
05/01 - 04:00 PM90.1°51.8°
05/01 - 03:45 PM89.6°51.5°
05/01 - 03:30 PM89.5°50.2°
05/01 - 03:15 PM90.3°49.1°
05/01 - 03:00 PM90.3°48.4°
05/01 - 02:45 PM89.4°49.3°
05/01 - 02:30 PM88.8°50.2°
05/01 - 02:15 PM88.3°52.9°
05/01 - 02:00 PM88.3°54.7°
05/01 - 01:45 PM88.8°56.2°
05/01 - 01:30 PM87.6°56.5°
05/01 - 01:15 PM86.7°56.8°
05/01 - 01:00 PM86.7°57.9°
05/01 - 12:45 PM85.8°58.0°
05/01 - 12:30 PM86.0°58.3°
05/01 - 12:15 PM84.6°58.4°
05/01 - 12:00 PM84.9°58.4°
05/01 - 11:45 AM83.5°58.2°
05/01 - 11:30 AM83.4°58.1°